sat.trackr.live / text

‹ back to catalog

STARLINK-34419

NORAD 64412 · 2025-129A

PAYLOAD ACTIVE UNKNOWN

§ Identity

Operator
Country
US
Launch date
2025-06-17
Launch site
AFWTR
Launch vehicle
Mass (kg)
RCS (m²)

Purposes: comms

External: N2YO · Heavens-Above · Gunter

§ Orbital elements

Epoch: 2026-05-24T23:55:58.118016Z

Period
96.11 min
Inclination
70.0008°
Eccentricity
0.0003525
Mean motion
14.98334541 rev/d
Perigee alt
569.6 km
Apogee alt
574.5 km
Semi-major
6,950.2 km
B*
1.9402e-4
RAAN
242.1993°
Arg perigee
269.9249°
Mean anomaly
90.1506°
Rev number
5,273

§ Raw data

STARLINK-344191 64412U 25129A   26144.99720044  .00002223  00000+0  19402-3 0  99952 64412  70.0008 242.1993 0003525 269.9249  90.1506 14.98334541 52730

JSON: /api/v1/satellites/64412 · /tle

For live sub-satellite position, see the globe view (requires WebGL).

§ Visibility from observer

Set your observer location to see the next 7 days of passes ≥ 10°. The values pass through the URL so the page stays shareable.

No JS? Fill the form by hand. The geolocation button needs JavaScript.